| time (UTC) | temp C | wind direction | speed KPH | gust KPH | rain 1hr cm | rain 24hr cm | rain mn cm | humidity % | barometer mb |
| 20260906094049 | 19 | 360 | 1.6 | 4.8 | 0.00 | 0.56 | 0.00 | 93 | 1012.2 |
| 20260906093549 | 19 | 0 | 0.0 | 0.0 | 0.00 | 0.56 | 0.00 | 93 | 1012.1 |
| 20260906093103 | 19 | 0 | 0.0 | 0.0 | 0.00 | 0.56 | 0.00 | 93 | 1011.9 |
| 20260906092548 | 19 | 0 | 0.0 | 1.6 | 0.00 | 0.56 | 0.00 | 93 | 1011.9 |
| 20260906092052 | 19 | 0 | 0.0 | 4.8 | 0.00 | 0.56 | 0.00 | 93 | 1012.0 |
| 20260906091607 | 19 | 0 | 1.6 | 6.4 | 0.00 | 0.56 | 0.00 | 92 | 1011.9 |
| 20260906091046 | 19 | 360 | 3.2 | 9.7 | 0.00 | 0.56 | 0.00 | 92 | 1012.1 |
| 20260906090548 | 19 | 348 | 4.8 | 11.3 | 0.00 | 0.56 | 0.00 | 92 | 1012.0 |
| 20260906090103 | 20 | 340 | 6.4 | 11.3 | 0.00 | 0.56 | 0.00 | 93 | 1012.2 |
| 20260906085548 | 20 | 338 | 8.0 | 11.3 | 0.00 | 0.56 | 0.00 | 93 | 1012.1 |
| 20260906085048 | 20 | 342 | 8.0 | 11.3 | 0.00 | 0.56 | 0.00 | 92 | 1012.1 |
| 20260906084606 | 20 | 341 | 4.8 | 8.0 | 0.00 | 0.56 | 0.00 | 92 | 1012.0 |
| 20260906084050 | 20 | 348 | 3.2 | 6.4 | 0.00 | 0.56 | 0.00 | 92 | 1012.1 |
| 20260906083548 | 20 | 348 | 1.6 | 4.8 | 0.00 | 0.56 | 0.00 | 92 | 1012.0 |
| 20260906083106 | 20 | 357 | 1.6 | 4.8 | 0.00 | 0.56 | 0.00 | 91 | 1012.1 |
| 20260906082548 | 20 | 357 | 1.6 | 4.8 | 0.00 | 0.56 | 0.00 | 91 | 1012.1 |
| 20260906082048 | 20 | 357 | 1.6 | 6.4 | 0.00 | 0.56 | 0.00 | 91 | 1012.1 |
| 20260906081603 | 20 | 339 | 3.2 | 8.0 | 0.00 | 0.56 | 0.00 | 91 | 1012.2 |
| 20260906081050 | 20 | 338 | 3.2 | 8.0 | 0.00 | 0.56 | 0.00 | 91 | 1012.4 |
| 20260906080549 | 20 | 342 | 3.2 | 6.4 | 0.00 | 0.56 | 0.00 | 91 | 1012.3 |
| 20260906080106 | 20 | 336 | 3.2 | 8.0 | 0.00 | 0.56 | 0.00 | 91 | 1012.3 |
| 20260906075546 | 20 | 325 | 3.2 | 8.0 | 0.00 | 0.56 | 0.00 | 91 | 1012.3 |
| 20260906075048 | 20 | 331 | 3.2 | 8.0 | 0.00 | 0.56 | 0.00 | 91 | 1012.3 |
| 20260906074601 | 20 | 336 | 4.8 | 8.0 | 0.00 | 0.56 | 0.00 | 91 | 1012.2 |
| 20260906074048 | 19 | 347 | 3.2 | 6.4 | 0.00 | 0.56 | 0.00 | 91 | 1012.4 |
| 20260906073549 | 19 | 335 | 1.6 | 4.8 | 0.00 | 0.56 | 0.00 | 90 | 1012.2 |
| 20260906073105 | 20 | 0 | 0.0 | 3.2 | 0.00 | 0.56 | 0.00 | 90 | 1012.3 |
| 20260906072549 | 20 | 0 | 0.0 | 3.2 | 0.00 | 0.56 | 0.00 | 90 | 1012.3 |
| 20260906072049 | 20 | 265 | 0.0 | 4.8 | 0.00 | 0.56 | 0.00 | 90 | 1012.3 |
| 20260906071606 | 20 | 257 | 0.0 | 4.8 | 0.00 | 0.56 | 0.00 | 90 | 1012.3 |
| 20260906071051 | 20 | 278 | 1.6 | 4.8 | 0.00 | 0.56 | 0.00 | 90 | 1012.4 |
| 20260906070550 | 20 | 259 | 1.6 | 4.8 | 0.00 | 0.56 | 0.00 | 90 | 1012.2 |
| 20260906070109 | 20 | 224 | 3.2 | 4.8 | 0.00 | 0.56 | 0.00 | 90 | 1012.2 |
| 20260906065552 | 20 | 206 | 1.6 | 4.8 | 0.00 | 0.56 | 0.00 | 90 | 1012.2 |
| 20260906065049 | 20 | 0 | 1.6 | 4.8 | 0.00 | 0.56 | 0.00 | 90 | 1012.2 |
| 20260906064603 | 20 | 221 | 0.0 | 6.4 | 0.00 | 0.56 | 0.00 | 91 | 1012.3 |
| 20260906064050 | 19 | 221 | 1.6 | 8.0 | 0.00 | 0.56 | 0.00 | 91 | 1012.2 |
| 20260906063549 | 19 | 213 | 3.2 | 8.0 | 0.00 | 0.56 | 0.00 | 91 | 1012.3 |
| 20260906063105 | 19 | 215 | 4.8 | 8.0 | 0.00 | 0.56 | 0.00 | 92 | 1012.4 |
| 20260906062548 | 19 | 241 | 3.2 | 8.0 | 0.00 | 0.56 | 0.00 | 92 | 1012.6 |
| 20260906062048 | 19 | 220 | 3.2 | 8.0 | 0.00 | 0.56 | 0.00 | 92 | 1012.8 |
| 20260906061623 | 19 | 210 | 1.6 | 8.0 | 0.00 | 0.56 | 0.00 | 92 | 1012.8 |
| 20260906061049 | 19 | 220 | 3.2 | 9.7 | 0.00 | 0.56 | 0.00 | 92 | 1012.8 |
| 20260906060548 | 19 | 225 | 4.8 | 9.7 | 0.00 | 0.56 | 0.00 | 92 | 1012.8 |
| 20260906060128 | 19 | 217 | 4.8 | 8.0 | 0.00 | 0.56 | 0.00 | 93 | 1012.7 |
| 20260906055547 | 19 | 229 | 4.8 | 8.0 | 0.00 | 0.56 | 0.00 | 93 | 1013.0 |
| 20260906055048 | 19 | 231 | 4.8 | 8.0 | 0.00 | 0.56 | 0.00 | 93 | 1012.8 |
| 20260906054605 | 19 | 222 | 3.2 | 6.4 | 0.00 | 0.56 | 0.00 | 92 | 1013.0 |
| 20260906054046 | 19 | 194 | 3.2 | 8.0 | 0.00 | 0.56 | 0.00 | 92 | 1013.0 |
| 20260906053549 | 19 | 225 | 3.2 | 8.0 | 0.00 | 0.56 | 0.00 | 92 | 1013.0 |
| 20260906053102 | 20 | 216 | 4.8 | 8.0 | 0.00 | 0.56 | 0.00 | 91 | 1013.1 |
| 20260906052551 | 20 | 217 | 4.8 | 8.0 | 0.00 | 0.56 | 0.00 | 91 | 1013.0 |
| 20260906052049 | 20 | 221 | 3.2 | 6.4 | 0.00 | 0.56 | 0.00 | 89 | 1013.0 |
| 20260906051607 | 20 | 215 | 3.2 | 6.4 | 0.00 | 0.56 | 0.00 | 89 | 1013.1 |
| 20260906051049 | 20 | 226 | 3.2 | 6.4 | 0.00 | 0.56 | 0.00 | 89 | 1013.0 |
| 20260906050551 | 20 | 195 | 0.0 | 4.8 | 0.00 | 0.56 | 0.00 | 89 | 1013.1 |
| 20260906050107 | 20 | 195 | 1.6 | 4.8 | 0.00 | 0.56 | 0.00 | 89 | 1013.2 |
| 20260906045548 | 20 | 184 | 1.6 | 4.8 | 0.00 | 0.56 | 0.00 | 89 | 1013.2 |
| 20260906045048 | 20 | 182 | 1.6 | 4.8 | 0.00 | 0.56 | 0.00 | 89 | 1013.1 |
| 20260906044601 | 20 | 0 | 0.0 | 1.6 | 0.00 | 0.56 | 0.00 | 89 | 1013.1 |
| 20260906044047 | 20 | 0 | 0.0 | 4.8 | 0.00 | 0.56 | 0.00 | 89 | 1013.2 |
| 20260906043550 | 20 | 0 | 1.6 | 4.8 | 0.00 | 0.56 | 0.00 | 89 | 1013.2 |
| 20260906043102 | 20 | 205 | 1.6 | 4.8 | 0.00 | 0.56 | 0.00 | 89 | 1013.1 |
| 20260906042548 | 20 | 178 | 0.0 | 4.8 | 0.00 | 0.56 | 0.00 | 89 | 1013.2 |
| 20260906042048 | 20 | 168 | 1.6 | 4.8 | 0.00 | 0.56 | 0.00 | 89 | 1013.1 |
| 20260906041605 | 20 | 197 | 1.6 | 4.8 | 0.00 | 0.56 | 0.00 | 89 | 1013.0 |
| 20260906041049 | 20 | 208 | 3.2 | 6.4 | 0.00 | 0.56 | 0.00 | 88 | 1013.1 |
| 20260906040549 | 20 | 253 | 1.6 | 6.4 | 0.00 | 0.56 | 0.00 | 88 | 1013.1 |
| 20260906040109 | 20 | 330 | 3.2 | 6.4 | 0.00 | 0.56 | 0.00 | 88 | 1013.2 |
| 20260906035547 | 20 | 300 | 1.6 | 4.8 | 0.00 | 0.56 | 0.56 | 88 | 1013.2 |
| 20260906035048 | 20 | 0 | 0.0 | 8.0 | 0.00 | 0.56 | 0.56 | 88 | 1013.1 |
| 20260906034606 | 20 | 345 | 1.6 | 8.0 | 0.00 | 0.56 | 0.56 | 88 | 1013.2 |
| 20260906034049 | 20 | 338 | 3.2 | 6.4 | 0.00 | 0.56 | 0.56 | 88 | 1013.2 |
| 20260906033548 | 20 | 331 | 3.2 | 9.7 | 0.00 | 0.56 | 0.56 | 89 | 1013.2 |
| 20260906033104 | 20 | 328 | 4.8 | 9.7 | 0.00 | 0.56 | 0.56 | 89 | 1013.3 |
| 20260906032548 | 20 | 326 | 4.8 | 6.4 | 0.00 | 0.56 | 0.56 | 89 | 1013.2 |
| 20260906032054 | 20 | 337 | 4.8 | 6.4 | 0.00 | 0.56 | 0.56 | 89 | 1013.2 |
| 20260906031604 | 20 | 340 | 3.2 | 6.4 | 0.00 | 0.56 | 0.56 | 89 | 1013.3 |
| 20260906031051 | 20 | 347 | 3.2 | 8.0 | 0.00 | 0.56 | 0.56 | 90 | 1013.5 |
| 20260906030548 | 20 | 347 | 3.2 | 8.0 | 0.00 | 0.56 | 0.56 | 89 | 1013.4 |
| 20260906025548 | 20 | 340 | 6.4 | 8.0 | 0.00 | 0.56 | 0.56 | 90 | 1013.7 |
| 20260906025048 | 20 | 342 | 4.8 | 9.7 | 0.00 | 0.56 | 0.56 | 89 | 1013.7 |
| 20260906024604 | 20 | 336 | 4.8 | 9.7 | 0.00 | 0.56 | 0.56 | 90 | 1013.7 |
| 20260906024051 | 20 | 328 | 4.8 | 8.0 | 0.00 | 0.56 | 0.56 | 90 | 1013.7 |
| 20260906023549 | 20 | 337 | 4.8 | 9.7 | 0.00 | 0.56 | 0.56 | 90 | 1013.6 |
| 20260906023106 | 21 | 335 | 4.8 | 9.7 | 0.00 | 0.56 | 0.56 | 90 | 1013.5 |
| 20260906022550 | 21 | 326 | 4.8 | 9.7 | 0.00 | 0.56 | 0.56 | 89 | 1013.5 |
| 20260906022048 | 21 | 358 | 4.8 | 9.7 | 0.00 | 0.56 | 0.56 | 89 | 1013.6 |
| 20260906021557 | 21 | 321 | 4.8 | 8.0 | 0.00 | 0.56 | 0.56 | 89 | 1013.7 |
| 20260906021048 | 21 | 326 | 4.8 | 8.0 | 0.00 | 0.56 | 0.56 | 89 | 1013.6 |
| 20260906020548 | 21 | 332 | 4.8 | 8.0 | 0.00 | 0.56 | 0.56 | 89 | 1013.5 |
| 20260906020109 | 21 | 337 | 3.2 | 8.0 | 0.00 | 0.56 | 0.56 | 89 | 1013.4 |
| 20260906015547 | 21 | 325 | 4.8 | 8.0 | 0.00 | 0.56 | 0.56 | 89 | 1013.5 |
| 20260906015048 | 21 | 344 | 3.2 | 8.0 | 0.00 | 0.56 | 0.56 | 89 | 1013.5 |
| 20260906014607 | 21 | 343 | 4.8 | 8.0 | 0.00 | 0.56 | 0.56 | 88 | 1013.5 |
| 20260906014048 | 21 | 344 | 4.8 | 8.0 | 0.00 | 0.56 | 0.56 | 88 | 1013.6 |
| 20260906013548 | 21 | 338 | 4.8 | 8.0 | 0.00 | 0.56 | 0.56 | 88 | 1013.6 |
| 20260906013106 | 21 | 329 | 4.8 | 9.7 | 0.00 | 0.56 | 0.56 | 88 | 1013.5 |
| 20260906012547 | 21 | 342 | 4.8 | 9.7 | 0.00 | 0.56 | 0.56 | 88 | 1013.3 |
| 20260906012045 | 21 | 327 | 4.8 | 9.7 | 0.00 | 0.56 | 0.56 | 89 | 1013.3 |
| 20260906011606 | 21 | 307 | 1.6 | 4.8 | 0.00 | 0.56 | 0.56 | 89 | 1013.1 |
| 20260906011048 | 21 | 247 | 1.6 | 4.8 | 0.00 | 0.56 | 0.56 | 90 | 1012.9 |
| 20260906010548 | 21 | 215 | 1.6 | 6.4 | 0.00 | 0.56 | 0.56 | 90 | 1013.0 |
| 20260906010108 | 21 | 228 | 1.6 | 8.0 | 0.00 | 0.56 | 0.56 | 90 | 1013.0 |
| 20260906005545 | 21 | 217 | 3.2 | 9.7 | 0.00 | 0.56 | 0.56 | 90 | 1013.0 |
| 20260906005052 | 21 | 267 | 4.8 | 9.7 | 0.00 | 0.56 | 0.56 | 89 | 1013.0 |
| 20260906004604 | 21 | 326 | 3.2 | 8.0 | 0.00 | 0.56 | 0.56 | 87 | 1012.9 |
| 20260906004051 | 21 | 348 | 3.2 | 8.0 | 0.00 | 0.56 | 0.56 | 87 | 1012.7 |
| 20260906003549 | 21 | 344 | 4.8 | 8.0 | 0.00 | 0.56 | 0.56 | 87 | 1012.6 |
| 20260906003104 | 21 | 353 | 1.6 | 4.8 | 0.00 | 0.56 | 0.56 | 87 | 1012.4 |
| 20260906002547 | 21 | 4 | 0.0 | 6.4 | 0.00 | 0.56 | 0.56 | 87 | 1012.5 |
| 20260906002048 | 22 | 0 | 0.0 | 8.0 | 0.00 | 0.56 | 0.56 | 86 | 1012.6 |
| 20260906001559 | 22 | 4 | 4.8 | 11.3 | 0.00 | 0.56 | 0.56 | 86 | 1012.8 |
| 20260906001045 | 22 | 351 | 6.4 | 14.5 | 0.00 | 0.56 | 0.56 | 85 | 1012.6 |
| 20260906000548 | 22 | 346 | 8.0 | 17.7 | 0.00 | 0.56 | 0.56 | 84 | 1012.5 |
| 20260906000111 | 22 | 347 | 11.3 | 17.7 | 0.00 | 0.56 | 0.56 | 83 | 1012.3 |
| 20260905235548 | 22 | 319 | 9.7 | 17.7 | 0.00 | 0.56 | 0.56 | 82 | 1012.4 |
| 20260905235052 | 23 | 3 | 6.4 | 19.3 | 0.00 | 0.56 | 0.56 | 81 | 1012.6 |
| 20260905234602 | 23 | 1 | 11.3 | 19.3 | 0.00 | 0.56 | 0.56 | 80 | 1012.7 |
| 20260905234048 | 23 | 336 | 8.0 | 17.7 | 0.00 | 0.56 | 0.56 | 79 | 1012.5 |
| 20260905233548 | 23 | 336 | 9.7 | 14.5 | 0.00 | 0.56 | 0.56 | 78 | 1012.4 |
| 20260905233117 | 23 | 337 | 6.4 | 12.9 | 0.00 | 0.56 | 0.56 | 77 | 1012.4 |
| 20260905232547 | 24 | 340 | 6.4 | 12.9 | 0.00 | 0.56 | 0.56 | 77 | 1012.4 |
| 20260905232046 | 24 | 335 | 6.4 | 12.9 | 0.00 | 0.56 | 0.56 | 76 | 1012.5 |
| 20260905231601 | 24 | 323 | 4.8 | 11.3 | 0.00 | 0.56 | 0.56 | 76 | 1012.6 |
| 20260905231046 | 25 | 333 | 3.2 | 11.3 | 0.00 | 0.56 | 0.56 | 75 | 1012.8 |
| 20260905230544 | 25 | 312 | 4.8 | 12.9 | 0.00 | 0.56 | 0.56 | 74 | 1012.7 |
| 20260905230108 | 25 | 332 | 6.4 | 12.9 | 0.00 | 0.56 | 0.56 | 73 | 1012.8 |
| 20260905225547 | 25 | 340 | 4.8 | 11.3 | 0.00 | 0.56 | 0.56 | 73 | 1012.7 |
| 20260905225048 | 25 | 333 | 4.8 | 12.9 | 0.00 | 0.56 | 0.56 | 72 | 1012.7 |
| 20260905224602 | 25 | 330 | 4.8 | 12.9 | 0.00 | 0.56 | 0.56 | 72 | 1012.8 |
| 20260905224048 | 25 | 340 | 4.8 | 12.9 | 0.00 | 0.56 | 0.56 | 72 | 1013.0 |
| 20260905223547 | 25 | 309 | 4.8 | 12.9 | 0.00 | 0.56 | 0.56 | 72 | 1012.9 |
| 20260905223105 | 25 | 327 | 4.8 | 11.3 | 0.00 | 0.56 | 0.56 | 72 | 1012.7 |
| 20260905222547 | 25 | 326 | 6.4 | 12.9 | 0.00 | 0.56 | 0.56 | 72 | 1012.8 |
| 20260905222047 | 25 | 327 | 6.4 | 12.9 | 0.00 | 0.56 | 0.56 | 71 | 1012.8 |
| 20260905221607 | 25 | 326 | 8.0 | 12.9 | 0.00 | 0.56 | 0.56 | 71 | 1012.8 |
| 20260905221046 | 25 | 354 | 4.8 | 11.3 | 0.00 | 0.56 | 0.56 | 71 | 1012.8 |
| 20260905220547 | 26 | 345 | 6.4 | 11.3 | 0.00 | 0.56 | 0.56 | 71 | 1012.8 |
| 20260905220108 | 26 | 331 | 6.4 | 11.3 | 0.00 | 0.56 | 0.56 | 70 | 1013.0 |
| 20260905215547 | 26 | 337 | 6.4 | 12.9 | 0.00 | 0.56 | 0.56 | 72 | 1013.0 |
| 20260905215047 | 26 | 328 | 6.4 | 12.9 | 0.00 | 0.56 | 0.56 | 71 | 1012.9 |
| 20260905214603 | 26 | 333 | 4.8 | 11.3 | 0.00 | 0.56 | 0.56 | 71 | 1013.0 |
| 20260905214048 | 26 | 349 | 4.8 | 11.3 | 0.00 | 0.56 | 0.56 | 71 | 1013.0 |
| 20260905213547 | 26 | 318 | 4.8 | 14.5 | 0.00 | 0.56 | 0.56 | 71 | 1013.0 |
| 20260905213103 | 26 | 322 | 6.4 | 14.5 | 0.00 | 0.56 | 0.56 | 71 | 1013.1 |
| 20260905212548 | 26 | 339 | 6.4 | 14.5 | 0.00 | 0.56 | 0.56 | 71 | 1013.0 |
| 20260905212047 | 26 | 321 | 6.4 | 11.3 | 0.00 | 0.56 | 0.56 | 71 | 1012.9 |
| 20260905211613 | 26 | 320 | 6.4 | 12.9 | 0.00 | 0.56 | 0.56 | 71 | 1012.9 |
| 20260905211048 | 26 | 319 | 6.4 | 12.9 | 0.00 | 0.56 | 0.56 | 71 | 1012.8 |
| 20260905210548 | 26 | 338 | 4.8 | 12.9 | 0.00 | 0.56 | 0.56 | 72 | 1012.8 |
| 20260905210111 | 26 | 349 | 6.4 | 12.9 | 0.00 | 0.56 | 0.56 | 72 | 1012.6 |
| 20260905205547 | 25 | 345 | 6.4 | 12.9 | 0.00 | 0.56 | 0.56 | 71 | 1012.5 |
| 20260905205048 | 25 | 357 | 6.4 | 12.9 | 0.00 | 0.56 | 0.56 | 73 | 1012.4 |
| 20260905204606 | 25 | 332 | 6.4 | 14.5 | 0.00 | 0.56 | 0.56 | 72 | 1012.4 |
| 20260905204048 | 25 | 338 | 6.4 | 14.5 | 0.00 | 0.56 | 0.56 | 75 | 1012.3 |
| 20260905203550 | 24 | 338 | 8.0 | 14.5 | 0.00 | 0.56 | 0.56 | 75 | 1012.3 |
| 20260905203102 | 24 | 344 | 8.0 | 14.5 | 0.00 | 0.56 | 0.56 | 75 | 1012.1 |
| 20260905202548 | 24 | 335 | 9.7 | 17.7 | 0.00 | 0.56 | 0.56 | 74 | 1012.3 |
| 20260905202048 | 25 | 348 | 9.7 | 17.7 | 0.00 | 0.56 | 0.56 | 74 | 1012.4 |
| 20260905201604 | 25 | 358 | 11.3 | 17.7 | 0.00 | 0.56 | 0.56 | 72 | 1012.2 |
| 20260905201047 | 25 | 339 | 9.7 | 16.1 | 0.00 | 0.56 | 0.56 | 74 | 1012.2 |
| 20260905200552 | 24 | 339 | 9.7 | 16.1 | 0.00 | 0.56 | 0.56 | 74 | 1012.3 |
| 20260905200108 | 24 | 328 | 11.3 | 16.1 | 0.00 | 0.56 | 0.56 | 75 | 1012.2 |
| 20260905195547 | 23 | 349 | 11.3 | 17.7 | 0.00 | 0.56 | 0.56 | 76 | 1012.0 |
| 20260905195047 | 23 | 351 | 11.3 | 17.7 | 0.00 | 0.56 | 0.56 | 75 | 1012.0 |
| 20260905194607 | 23 | 11 | 9.7 | 19.3 | 0.00 | 0.56 | 0.56 | 76 | 1012.2 |
| 20260905194047 | 23 | 331 | 11.3 | 24.1 | 0.00 | 0.56 | 0.56 | 77 | 1012.1 |
| 20260905193547 | 23 | 338 | 14.5 | 24.1 | 0.00 | 0.56 | 0.56 | 76 | 1012.1 |
| 20260905193105 | 23 | 344 | 14.5 | 24.1 | 0.00 | 0.56 | 0.56 | 76 | 1012.2 |
| 20260905192548 | 23 | 326 | 14.5 | 24.1 | 0.00 | 0.56 | 0.56 | 77 | 1012.2 |
| 20260905192048 | 23 | 335 | 14.5 | 24.1 | 0.00 | 0.56 | 0.56 | 76 | 1012.1 |
| 20260905191606 | 22 | 315 | 14.5 | 30.6 | 0.00 | 0.56 | 0.56 | 77 | 1012.2 |
| 20260905191047 | 22 | 340 | 14.5 | 30.6 | 0.00 | 0.56 | 0.56 | 77 | 1012.2 |
| 20260905190551 | 22 | 332 | 14.5 | 30.6 | 0.00 | 0.56 | 0.56 | 77 | 1012.1 |
| 20260905190104 | 22 | 334 | 14.5 | 24.1 | 0.00 | 0.56 | 0.56 | 78 | 1012.2 |
| 20260905185547 | 22 | 302 | 9.7 | 19.3 | 0.00 | 0.56 | 0.56 | 81 | 1012.4 |
| 20260905185045 | 21 | 333 | 9.7 | 19.3 | 0.00 | 0.56 | 0.56 | 82 | 1012.6 |
| 20260905184611 | 21 | 321 | 8.0 | 14.5 | 0.00 | 0.56 | 0.56 | 84 | 1012.6 |
| 20260905184048 | 21 | 280 | 6.4 | 14.5 | 0.00 | 0.56 | 0.56 | 85 | 1012.6 |
| 20260905183548 | 21 | 286 | 6.4 | 11.3 | 0.03 | 0.56 | 0.56 | 85 | 1012.3 |
| 20260905183118 | 21 | 281 | 4.8 | 12.9 | 0.03 | 0.56 | 0.56 | 88 | 1012.6 |
| 20260905182547 | 20 | 326 | 4.8 | 14.5 | 0.05 | 0.56 | 0.56 | 89 | 1012.7 |
| 20260905182048 | 20 | 317 | 4.8 | 17.7 | 0.08 | 0.56 | 0.56 | 89 | 1012.9 |
| 20260905181606 | 20 | 315 | 6.4 | 17.7 | 0.10 | 0.56 | 0.56 | 89 | 1013.0 |
| 20260905181048 | 20 | 327 | 9.7 | 22.5 | 0.13 | 0.56 | 0.56 | 89 | 1013.1 |
| 20260905180550 | 20 | 4 | 9.7 | 22.5 | 0.15 | 0.56 | 0.56 | 91 | 1012.9 |
| 20260905180108 | 20 | 332 | 16.1 | 22.5 | 0.18 | 0.56 | 0.56 | 92 | 1013.2 |
| 20260905175549 | 19 | 6 | 1.6 | 12.9 | 0.20 | 0.56 | 0.56 | 91 | 1012.9 |
| 20260905175048 | 19 | 0 | 1.6 | 6.4 | 0.23 | 0.56 | 0.56 | 89 | 1012.7 |
| 20260905174559 | 19 | 201 | 3.2 | 6.4 | 0.28 | 0.56 | 0.56 | 91 | 1013.2 |
| 20260905174049 | 19 | 0 | 1.6 | 8.0 | 0.43 | 0.56 | 0.56 | 91 | 1013.9 |
| 20260905173550 | 19 | 330 | 3.2 | 14.5 | 0.51 | 0.53 | 0.53 | 91 | 1014.1 |
| 20260905173059 | 19 | 161 | 6.4 | 16.1 | 0.53 | 0.53 | 0.53 | 90 | 1014.0 |
| 20260905172549 | 19 | 244 | 6.4 | 17.7 | 0.51 | 0.51 | 0.51 | 90 | 1014.5 |
| 20260905172050 | 19 | 326 | 9.7 | 32.2 | 0.48 | 0.48 | 0.48 | 90 | 1015.2 |
| 20260905171605 | 19 | 323 | 11.3 | 32.2 | 0.46 | 0.46 | 0.46 | 91 | 1015.4 |
| 20260905171049 | 19 | 321 | 9.7 | 19.3 | 0.43 | 0.43 | 0.43 | 93 | 1015.4 |
| 20260905170549 | 19 | 299 | 9.7 | 24.1 | 0.41 | 0.41 | 0.41 | 92 | 1015.6 |
| 20260905170104 | 19 | 343 | 11.3 | 24.1 | 0.38 | 0.38 | 0.38 | 92 | 1015.6 |
| 20260905165549 | 18 | 268 | 9.7 | 32.2 | 0.36 | 0.36 | 0.36 | 91 | 1015.8 |
| 20260905165050 | 18 | 262 | 11.3 | 32.2 | 0.33 | 0.33 | 0.33 | 89 | 1016.3 |
| 20260905164609 | 19 | 314 | 19.3 | 33.8 | 0.28 | 0.28 | 0.28 | 86 | 1016.0 |
| 20260905164049 | 20 | 344 | 19.3 | 35.4 | 0.13 | 0.13 | 0.13 | 80 | 1016.0 |
| 20260905163550 | 21 | 328 | 24.1 | 45.1 | 0.03 | 0.03 | 0.03 | 76 | 1016.3 |
| 20260905163110 | 22 | 340 | 24.1 | 56.3 | 0.00 | 0.00 | 0.00 | 72 | 1016.3 |
| 20260905162551 | 23 | 341 | 35.4 | 56.3 | 0.00 | 0.00 | 0.00 | 69 | 1016.2 |
| 20260905162049 | 25 | 1 | 29.0 | 46.7 | 0.00 | 0.00 | 0.00 | 71 | 1015.7 |
| 20260905161608 | 26 | 339 | 19.3 | 40.2 | 0.00 | 0.00 | 0.00 | 73 | 1015.5 |
| 20260905161049 | 27 | 328 | 11.3 | 19.3 | 0.00 | 0.00 | 0.00 | 74 | 1015.3 |
| 20260905160549 | 27 | 330 | 9.7 | 17.7 | 0.00 | 0.00 | 0.00 | 73 | 1015.3 |
| 20260905160105 | 27 | 323 | 6.4 | 14.5 | 0.00 | 0.00 | 0.00 | 72 | 1015.0 |
| 20260905155551 | 27 | 342 | 8.0 | 14.5 | 0.00 | 0.00 | 0.00 | 73 | 1014.8 |
| 20260905155048 | 27 | 353 | 8.0 | 17.7 | 0.00 | 0.00 | 0.00 | 72 | 1015.1 |
| 20260905154607 | 27 | 326 | 9.7 | 17.7 | 0.00 | 0.00 | 0.00 | 73 | 1015.0 |
| 20260905154049 | 27 | 312 | 6.4 | 16.1 | 0.00 | 0.00 | 0.00 | 72 | 1015.0 |
| 20260905153549 | 27 | 321 | 6.4 | 17.7 | 0.00 | 0.00 | 0.00 | 73 | 1015.3 |
| 20260905153116 | 27 | 323 | 8.0 | 19.3 | 0.00 | 0.00 | 0.00 | 71 | 1015.3 |
| 20260905152547 | 28 | 6 | 9.7 | 19.3 | 0.00 | 0.00 | 0.00 | 73 | 1015.3 |
| 20260905152049 | 28 | 323 | 9.7 | 17.7 | 0.00 | 0.00 | 0.00 | 72 | 1015.2 |
| 20260905151614 | 27 | 326 | 6.4 | 17.7 | 0.00 | 0.00 | 0.00 | 74 | 1015.3 |
| 20260905151048 | 27 | 307 | 6.4 | 17.7 | 0.00 | 0.00 | 0.00 | 75 | 1015.3 |
| 20260905150548 | 27 | 320 | 9.7 | 17.7 | 0.00 | 0.00 | 0.00 | 74 | 1015.3 |
| 20260905150107 | 27 | 313 | 4.8 | 12.9 | 0.00 | 0.00 | 0.00 | 76 | 1015.2 |
| 20260905145549 | 26 | 343 | 4.8 | 12.9 | 0.00 | 0.00 | 0.00 | 77 | 1015.1 |
| 20260905145049 | 26 | 334 | 4.8 | 12.9 | 0.00 | 0.00 | 0.00 | 77 | 1015.0 |
| 20260905144605 | 26 | 293 | 6.4 | 12.9 | 0.00 | 0.00 | 0.00 | 77 | 1014.9 |
| 20260905144053 | 26 | 306 | 4.8 | 12.9 | 0.00 | 0.00 | 0.00 | 78 | 1014.9 |
| 20260905143548 | 26 | 299 | 4.8 | 17.7 | 0.00 | 0.00 | 0.00 | 78 | 1014.9 |
| 20260905143106 | 26 | 283 | 6.4 | 17.7 | 0.00 | 0.00 | 0.00 | 76 | 1015.0 |
| 20260905142546 | 26 | 326 | 8.0 | 17.7 | 0.00 | 0.00 | 0.00 | 76 | 1015.0 |
| 20260905142048 | 26 | 323 | 6.4 | 12.9 | 0.00 | 0.00 | 0.00 | 77 | 1015.1 |
| 20260905141629 | 26 | 326 | 4.8 | 12.9 | 0.00 | 0.00 | 0.00 | 78 | 1015.3 |
| 20260905141052 | 26 | 326 | 4.8 | 11.3 | 0.00 | 0.00 | 0.00 | 78 | 1015.1 |
| 20260905140547 | 25 | 326 | 4.8 | 12.9 | 0.00 | 0.00 | 0.00 | 79 | 1015.0 |
| 20260905140109 | 25 | 303 | 4.8 | 12.9 | 0.00 | 0.00 | 0.00 | 79 | 1014.9 |
| 20260905135546 | 25 | 323 | 4.8 | 9.7 | 0.00 | 0.00 | 0.00 | 80 | 1014.8 |
| 20260905135045 | 25 | 302 | 3.2 | 9.7 | 0.00 | 0.00 | 0.00 | 82 | 1014.8 |
| 20260905134604 | 24 | 0 | 3.2 | 9.7 | 0.00 | 0.00 | 0.00 | 82 | 1014.9 |
| 20260905134046 | 23 | 343 | 1.6 | 8.0 | 0.00 | 0.00 | 0.00 | 84 | 1014.7 |
| 20260905133546 | 23 | 267 | 3.2 | 8.0 | 0.00 | 0.00 | 0.00 | 85 | 1014.7 |
| 20260905133106 | 23 | 262 | 1.6 | 6.4 | 0.00 | 0.00 | 0.00 | 85 | 1014.9 |
| 20260905132546 | 23 | 0 | 3.2 | 6.4 | 0.00 | 0.00 | 0.00 | 85 | 1015.0 |
| 20260905132050 | 23 | 0 | 0.0 | 8.0 | 0.00 | 0.00 | 0.00 | 85 | 1015.0 |
| 20260905131616 | 23 | 250 | 3.2 | 8.0 | 0.00 | 0.00 | 0.00 | 84 | 1015.0 |
| 20260905131046 | 22 | 252 | 3.2 | 9.7 | 0.00 | 0.00 | 0.00 | 85 | 1015.1 |
| 20260905130550 | 22 | 278 | 3.2 | 9.7 | 0.00 | 0.00 | 0.00 | 85 | 1015.2 |
| 20260905130106 | 22 | 0 | 1.6 | 9.7 | 0.00 | 0.00 | 0.00 | 86 | 1015.1 |
| 20260905125546 | 22 | 245 | 1.6 | 8.0 | 0.00 | 0.00 | 0.00 | 86 | 1015.0 |
| 20260905125046 | 21 | 236 | 1.6 | 8.0 | 0.00 | 0.00 | 0.00 | 87 | 1015.0 |
| 20260905124604 | 21 | 216 | 1.6 | 6.4 | 0.00 | 0.00 | 0.00 | 87 | 1015.0 |
| 20260905124047 | 21 | 206 | 3.2 | 6.4 | 0.00 | 0.00 | 0.00 | 87 | 1015.1 |
| 20260905123547 | 21 | 188 | 3.2 | 9.7 | 0.00 | 0.00 | 0.00 | 87 | 1015.0 |
| 20260905123106 | 21 | 219 | 3.2 | 9.7 | 0.00 | 0.00 | 0.00 | 87 | 1015.0 |
| 20260905122544 | 21 | 202 | 3.2 | 8.0 | 0.00 | 0.00 | 0.00 | 87 | 1014.9 |
| 20260905122043 | 21 | 212 | 1.6 | 9.7 | 0.00 | 0.00 | 0.00 | 86 | 1014.9 |
| 20260905121607 | 21 | 238 | 3.2 | 9.7 | 0.00 | 0.00 | 0.00 | 84 | 1014.9 |
| 20260905121049 | 22 | 231 | 3.2 | 9.7 | 0.00 | 0.00 | 0.00 | 83 | 1014.8 |
| 20260905120547 | 22 | 275 | 3.2 | 12.9 | 0.00 | 0.00 | 0.00 | 82 | 1014.8 |
| 20260905120108 | 22 | 322 | 4.8 | 12.9 | 0.00 | 0.00 | 0.00 | 82 | 1014.6 |
| 20260905115546 | 22 | 330 | 6.4 | 12.9 | 0.00 | 0.00 | 0.00 | 82 | 1014.5 |
| 20260905115046 | 22 | 329 | 3.2 | 9.7 | 0.00 | 0.00 | 0.00 | 82 | 1014.5 |
| 20260905114604 | 22 | 263 | 3.2 | 9.7 | 0.00 | 0.00 | 0.00 | 82 | 1014.5 |
| 20260905114047 | 22 | 268 | 3.2 | 8.0 | 0.00 | 0.00 | 0.00 | 83 | 1014.3 |
| 20260905113544 | 22 | 305 | 3.2 | 9.7 | 0.00 | 0.00 | 0.00 | 83 | 1014.3 |
| 20260905113108 | 21 | 307 | 6.4 | 9.7 | 0.00 | 0.00 | 0.00 | 84 | 1014.3 |
| 20260905112549 | 21 | 325 | 4.8 | 8.0 | 0.00 | 0.00 | 0.00 | 84 | 1014.4 |
| 20260905112049 | 21 | 327 | 3.2 | 9.7 | 0.00 | 0.00 | 0.00 | 84 | 1014.4 |
| 20260905111600 | 21 | 264 | 3.2 | 9.7 | 0.00 | 0.00 | 0.00 | 84 | 1014.4 |
| 20260905111050 | 21 | 286 | 4.8 | 9.7 | 0.00 | 0.00 | 0.00 | 84 | 1014.3 |
| 20260905110548 | 21 | 252 | 4.8 | 9.7 | 0.00 | 0.00 | 0.00 | 84 | 1014.3 |
| 20260905110106 | 21 | 285 | 4.8 | 12.9 | 0.00 | 0.00 | 0.00 | 84 | 1014.3 |
| 20260905105549 | 21 | 323 | 6.4 | 12.9 | 0.00 | 0.00 | 0.00 | 85 | 1014.4 |
| 20260905105049 | 21 | 261 | 4.8 | 11.3 | 0.00 | 0.00 | 0.00 | 86 | 1014.4 |
| 20260905104606 | 21 | 246 | 4.8 | 8.0 | 0.00 | 0.00 | 0.00 | 86 | 1014.3 |
| 20260905104047 | 21 | 259 | 3.2 | 9.7 | 0.00 | 0.00 | 0.00 | 86 | 1014.2 |
| 20260905103552 | 21 | 264 | 4.8 | 9.7 | 0.00 | 0.00 | 0.00 | 86 | 1014.2 |
| 20260905103111 | 21 | 259 | 3.2 | 8.0 | 0.00 | 0.00 | 0.00 | 87 | 1014.2 |
| 20260905102549 | 20 | 259 | 4.8 | 8.0 | 0.00 | 0.00 | 0.00 | 88 | 1014.3 |
| 20260905102048 | 20 | 273 | 3.2 | 6.4 | 0.00 | 0.00 | 0.00 | 88 | 1014.3 |
| 20260905101603 | 20 | 255 | 1.6 | 6.4 | 0.00 | 0.00 | 0.00 | 87 | 1014.3 |
| 20260905101049 | 21 | 258 | 1.6 | 6.4 | 0.00 | 0.00 | 0.00 | 85 | 1014.1 |
| 20260905100549 | 21 | 285 | 1.6 | 8.0 | 0.00 | 0.00 | 0.00 | 83 | 1014.1 |
| 20260905100121 | 21 | 303 | 3.2 | 8.0 | 0.00 | 0.00 | 0.00 | 83 | 1014.0 |
| 20260905095548 | 21 | 323 | 4.8 | 9.7 | 0.00 | 0.00 | 0.00 | 84 | 1013.9 |
| 20260905095049 | 21 | 312 | 4.8 | 11.3 | 0.00 | 0.00 | 0.00 | 85 | 1013.9 |
| 20260905094603 | 21 | 260 | 4.8 | 11.3 | 0.00 | 0.00 | 0.00 | 85 | 1013.9 |